• In Czech Republic
  • List of Countries
  • For 7 days
  • Water Temperature
  • Satellite Maps
  • Weather Map
  • Weather Widgets
  • user-avatar
    Login

    Hourly Weather Kapan

    Today, 17 October, Tuesday

    Time Temperature Precipitation Wind Pressure Humidity
    00:00 +9°C° 0 mm 2 mps 683 mmHg 56%
    01:00 +8°C° 0.1 mm 2 mps 683 mmHg 57%
    02:00 +8°C° 0.1 mm 2 mps 683 mmHg 58%
    03:00 +7°C° 0.1 mm 2 mps 684 mmHg 60%
    04:00 +7°C° 0 mm 2 mps 684 mmHg 60%
    05:00 +6°C° 0 mm 2 mps 684 mmHg 60%
    06:00 +6°C° 0 mm 2 mps 685 mmHg 60%
    07:00 +8°C° 0 mm 2 mps 685 mmHg 54%
    08:00 +9°C° 0 mm 2 mps 685 mmHg 48%
    09:00 +12°C° 0 mm 2 mps 686 mmHg 42%
    10:00 +13°C° 0 mm 2 mps 686 mmHg 38%
    11:00 +14°C° 0 mm 2 mps 686 mmHg 34%
    12:00 +15°C° 0 mm 2 mps 686 mmHg 30%
    13:00 +16°C° 0 mm 3 mps 686 mmHg 30%
    14:00 +16°C° 0 mm 3 mps 686 mmHg 30%
    15:00 +16°C° 0 mm 3 mps 686 mmHg 30%
    16:00 +15°C° 0 mm 2 mps 686 mmHg 34%
    17:00 +13°C° 0 mm 2 mps 686 mmHg 39%
    18:00 +12°C° 0 mm 1 mps 686 mmHg 44%
    19:00 +12°C° 0 mm 1 mps 686 mmHg 46%
    20:00 +11°C° 0 mm 1 mps 686 mmHg 47%
    21:00 +11°C° 0 mm 1 mps 686 mmHg 48%
    22:00 +11°C° 0 mm 1 mps 686 mmHg 49%
    23:00 +11°C° 0 mm 1 mps 686 mmHg 49%

    Tomorrow, 18 October, Wednesday

    Time Temperature Precipitation Wind Pressure Humidity
    00:00 +10°C° 0 mm 1 mps 686 mmHg 50%
    01:00 +10°C° 0 mm 1 mps 686 mmHg 50%
    02:00 +10°C° 0 mm 1 mps 686 mmHg 51%
    03:00 +10°C° 0 mm 1 mps 686 mmHg 52%
    04:00 +10°C° 0 mm 1 mps 686 mmHg 52%
    05:00 +10°C° 0 mm 1 mps 687 mmHg 53%
    06:00 +9°C° 0 mm 1 mps 687 mmHg 53%
    07:00 +11°C° 0 mm 1 mps 687 mmHg 48%
    08:00 +13°C° 0 mm 1 mps 688 mmHg 43%
    09:00 +15°C° 0 mm 1 mps 689 mmHg 38%
    10:00 +16°C° 0 mm 1 mps 689 mmHg 36%
    11:00 +17°C° 0 mm 2 mps 689 mmHg 34%
    12:00 +18°C° 0 mm 2 mps 689 mmHg 32%
    13:00 +18°C° 0 mm 2 mps 689 mmHg 33%
    14:00 +18°C° 0 mm 2 mps 689 mmHg 33%
    15:00 +18°C° 0 mm 3 mps 688 mmHg 34%
    16:00 +17°C° 0 mm 2 mps 688 mmHg 40%
    17:00 +15°C° 0 mm 2 mps 688 mmHg 47%
    18:00 +13°C° 0 mm 1 mps 688 mmHg 53%
    19:00 +13°C° 0 mm 1 mps 689 mmHg 55%
    20:00 +12°C° 0 mm 1 mps 689 mmHg 58%
    21:00 +12°C° 0 mm 1 mps 689 mmHg 61%
    22:00 +12°C° 0 mm 1 mps 689 mmHg 62%
    23:00 +11°C° 0 mm 1 mps 689 mmHg 63%

    Day after tomorrow, 19 October, Thursday

    Time Temperature Precipitation Wind Pressure Humidity
    00:00 +11°C° 0 mm 1 mps 689 mmHg 65%
    01:00 +11°C° 0 mm 1 mps 689 mmHg 65%
    02:00 +11°C° 0 mm 1 mps 689 mmHg 66%
    03:00 +11°C° 0 mm 1 mps 689 mmHg 67%
    04:00 +10°C° 0 mm 1 mps 689 mmHg 67%
    05:00 +10°C° 0 mm 1 mps 689 mmHg 68%
    06:00 +10°C° 0 mm 1 mps 689 mmHg 68%
    07:00 +12°C° 0 mm 1 mps 689 mmHg 61%
    08:00 +14°C° 0 mm 1 mps 690 mmHg 54%
    09:00 +15°C° 0 mm 1 mps 690 mmHg 48%
    10:00 +16°C° 0 mm 2 mps 690 mmHg 45%
    11:00 +17°C° 0 mm 2 mps 689 mmHg 42%
    12:00 +18°C° 0 mm 2 mps 689 mmHg 39%
    13:00 +19°C° 0 mm 2 mps 689 mmHg 40%
    14:00 +19°C° 0 mm 2 mps 688 mmHg 40%
    15:00 +19°C° 0 mm 2 mps 688 mmHg 41%
    16:00 +17°C° 0 mm 2 mps 688 mmHg 49%
    17:00 +16°C° 0 mm 1 mps 688 mmHg 56%
    18:00 +14°C° 0 mm 1 mps 687 mmHg 64%
    19:00 +14°C° 0 mm 1 mps 687 mmHg 65%
    20:00 +13°C° 0 mm 1 mps 687 mmHg 67%
    21:00 +12°C° 0 mm 0 mps 687 mmHg 68%
    22:00 +12°C° 0 mm 0 mps 687 mmHg 67%
    23:00 +12°C° 0 mm 1 mps 687 mmHg 65%

    20 October, Friday

    Time Temperature Precipitation Wind Pressure Humidity
    00:00 +12°C° 0 mm 1 mps 687 mmHg 64%
    01:00 +12°C° 0 mm 1 mps 687 mmHg 62%
    02:00 +12°C° 0 mm 1 mps 686 mmHg 61%
    03:00 +11°C° 0 mm 1 mps 686 mmHg 59%
    04:00 +11°C° 0 mm 1 mps 686 mmHg 58%
    05:00 +11°C° 0 mm 1 mps 686 mmHg 57%
    06:00 +11°C° 0 mm 1 mps 686 mmHg 56%
    07:00 +13°C° 0 mm 1 mps 687 mmHg 50%
    08:00 +15°C° 0 mm 1 mps 687 mmHg 44%
    09:00 +18°C° 0 mm 1 mps 688 mmHg 39%
    10:00 +19°C° 0 mm 1 mps 688 mmHg 36%
    11:00 +19°C° 0 mm 2 mps 687 mmHg 33%
    12:00 +20°C° 0 mm 2 mps 687 mmHg 31%
    13:00 +20°C° 0 mm 2 mps 687 mmHg 32%
    14:00 +20°C° 0 mm 2 mps 687 mmHg 32%
    15:00 +20°C° 0 mm 2 mps 686 mmHg 33%
    16:00 +18°C° 0 mm 2 mps 686 mmHg 41%
    17:00 +16°C° 0 mm 1 mps 686 mmHg 48%
    18:00 +15°C° 0 mm 1 mps 686 mmHg 55%
    19:00 +14°C° 0 mm 1 mps 686 mmHg 58%
    20:00 +14°C° 0 mm 1 mps 687 mmHg 60%
    21:00 +12°C° 0 mm 0 mps 687 mmHg 63%
    22:00 +13°C° 0 mm 1 mps 687 mmHg 64%
    23:00 +13°C° 0 mm 1 mps 686 mmHg 64%

    21 October, Saturday

    Time Temperature Precipitation Wind Pressure Humidity
    00:00 +12°C° 0 mm 1 mps 686 mmHg 65%
    01:00 +12°C° 0 mm 1 mps 686 mmHg 65%
    02:00 +12°C° 0 mm 1 mps 686 mmHg 65%
    03:00 +11°C° 0 mm 1 mps 686 mmHg 65%
    04:00 +11°C° 0 mm 1 mps 686 mmHg 64%
    05:00 +11°C° 0 mm 1 mps 686 mmHg 64%
    06:00 +11°C° 0 mm 1 mps 686 mmHg 64%
    07:00 +13°C° 0 mm 1 mps 687 mmHg 57%
    08:00 +15°C° 0 mm 1 mps 688 mmHg 49%
    09:00 +16°C° 0 mm 1 mps 688 mmHg 42%
    10:00 +18°C° 0 mm 1 mps 688 mmHg 39%
    11:00 +18°C° 0 mm 2 mps 688 mmHg 36%
    12:00 +19°C° 0 mm 2 mps 688 mmHg 33%
    13:00 +19°C° 0 mm 2 mps 687 mmHg 33%
    14:00 +19°C° 0 mm 2 mps 687 mmHg 34%
    15:00 +19°C° 0 mm 2 mps 687 mmHg 34%
    16:00 +18°C° 0 mm 2 mps 687 mmHg 39%
    17:00 +16°C° 0 mm 1 mps 686 mmHg 45%
    18:00 +15°C° 0 mm 1 mps 686 mmHg 50%
    19:00 +14°C° 0 mm 1 mps 686 mmHg 53%
    20:00 +14°C° 0 mm 1 mps 686 mmHg 55%
    21:00 +13°C° 0 mm 1 mps 686 mmHg 58%
    22:00 +13°C° 0 mm 1 mps 686 mmHg 58%
    23:00 +12°C° 0 mm 1 mps 686 mmHg 59%

    22 October, Sunday

    Time Temperature Precipitation Wind Pressure Humidity
    00:00 +12°C° 0 mm 1 mps 685 mmHg 60%
    01:00 +12°C° 0 mm 1 mps 685 mmHg 60%
    02:00 +12°C° 0 mm 1 mps 685 mmHg 59%
    03:00 +11°C° 0 mm 1 mps 685 mmHg 59%
    04:00 +11°C° 0 mm 1 mps 685 mmHg 58%
    05:00 +11°C° 0 mm 1 mps 685 mmHg 58%
    06:00 +11°C° 0 mm 1 mps 685 mmHg 57%
    07:00 +13°C° 0 mm 1 mps 685 mmHg 50%
    08:00 +15°C° 0 mm 1 mps 686 mmHg 42%
    09:00 +18°C° 0 mm 1 mps 686 mmHg 35%
    10:00 +19°C° 0 mm 1 mps 686 mmHg 31%
    11:00 +19°C° 0 mm 2 mps 685 mmHg 28%
    12:00 +20°C° 0 mm 2 mps 685 mmHg 24%
    13:00 +20°C° 0 mm 2 mps 685 mmHg 24%
    14:00 +20°C° 0 mm 2 mps 684 mmHg 24%
    15:00 +20°C° 0 mm 2 mps 684 mmHg 24%
    16:00 +18°C° 0 mm 2 mps 684 mmHg 30%
    17:00 +16°C° 0 mm 1 mps 683 mmHg 36%
    18:00 +15°C° 0 mm 1 mps 683 mmHg 41%
    19:00 +14°C° 0 mm 1 mps 683 mmHg 42%
    20:00 +14°C° 0 mm 1 mps 683 mmHg 42%
    21:00 +13°C° 0 mm 1 mps 683 mmHg 43%
    22:00 +13°C° 0 mm 1 mps 684 mmHg 41%
    23:00 +13°C° 0 mm 1 mps 684 mmHg 40%
    Show more